This demonstration page uses our WeatherBlox Daily Observations layout. Learn more.

Left ArrowRight Arrow

Hourly Observations for March 21, 2020

Temp ( °F °C ) Dew Point ( °F °C ) Humidity (%) Winds ( mph kmh ) Pressure ( in mb ) Visibility ( mi km ) Precip ( " mm )
12:15 am 00:15 Cloudy 30 -1 28 -2 93 93 N 13 20 30.47 1032 10 16 N/A
12:35 am 00:35 Cloudy 30 -1 28 -2 93 93 N 14 22 30.48 1032 10 16 N/A
12:55 am 00:55 Cloudy 30 -1 28 -2 93 93 N 10 17 30.48 1032 10 16 N/A
12:56 am 00:56 Cloudy 30 -1 28 -2 93 93 N 12 19 30.48 1032 10 16 N/A
1:15 am 01:15 Cloudy 30 -1 28 -2 93 93 N 14 22 30.48 1032 10 16 N/A
1:35 am 01:35 Cloudy 30 -1 28 -2 93 93 N 15 24 30.46 1031 10 16 N/A
1:55 am 01:55 Cloudy 30 -1 28 -2 93 93 N 13 20 30.47 1032 10 16 N/A
2:15 am 02:15 Cloudy 30 -1 27 -3 86 86 NNE 16 26 30.48 1032 10 16 N/A
2:35 am 02:35 Cloudy 30 -1 27 -3 86 86 N 14 22 30.48 1032 10 16 N/A
2:55 am 02:55 Cloudy 28 -2 27 -3 93 93 N 13 20 30.48 1032 10 16 N/A
2:56 am 02:56 Cloudy 28 -2 27 -3 93 93 N 15 24 30.48 1032 10 16 N/A
3:15 am 03:15 Cloudy 28 -2 27 -3 93 93 N 10 17 30.48 1032 10 16 N/A
3:16 am 03:16 Cloudy 28 -2 27 -3 93 93 N 10 17 30.48 1032 10 16 N/A
3:35 am 03:35 Cloudy 30 -1 27 -3 86 86 N 9 15 30.47 1032 10 16 N/A
3:36 am 03:36 Cloudy 30 -1 27 -3 86 86 N 10 17 30.47 1032 10 16 N/A
3:55 am 03:55 Cloudy 30 -1 27 -3 86 86 N 12 19 30.46 1031 10 16 N/A
4:15 am 04:15 Cloudy 30 -1 27 -3 86 86 N 7 11 30.46 1031 10 16 N/A
4:35 am 04:35 Cloudy 30 -1 27 -3 86 86 N 12 19 30.46 1031 10 16 N/A
4:55 am 04:55 Cloudy 30 -1 27 -3 86 86 N 14 22 30.46 1031 10 16 N/A
5:15 am 05:15 Cloudy 30 -1 27 -3 86 86 NNE 12 19 30.47 1032 10 16 N/A
5:16 am 05:16 Cloudy 30 -1 27 -3 86 86 NNE 13 20 30.47 1032 10 16 N/A
5:35 am 05:35 Cloudy 30 -1 27 -3 86 86 NNE 14 22 30.48 1032 10 16 N/A
5:55 am 05:55 Cloudy 28 -2 27 -3 93 93 N 10 17 30.49 1033 10 16 N/A
6:15 am 06:15 Cloudy 28 -2 25 -4 86 86 N 7 11 30.50 1033 10 16 N/A
6:16 am 06:16 Cloudy 28 -2 25 -4 86 86 N 7 11 30.50 1033 10 16 N/A
6:35 am 06:35 Cloudy 28 -2 25 -4 86 86 N 9 15 30.51 1033 10 16 N/A
6:36 am 06:36 Cloudy 28 -2 25 -4 86 86 N 8 13 30.51 1033 10 16 N/A
6:55 am 06:55 Cloudy 28 -2 27 -3 93 93 N 9 15 30.51 1033 10 16 N/A
7:15 am 07:15 Cloudy 28 -2 27 -3 93 93 N 8 13 30.51 1033 10 16 N/A
7:16 am 07:16 Cloudy 28 -2 27 -3 93 93 N 7 11 30.51 1033 10 16 N/A
7:35 am 07:35 Cloudy 30 -1 27 -3 86 86 N 9 15 30.51 1033 10 16 N/A
7:36 am 07:36 Cloudy 30 -1 27 -3 86 86 N 8 13 30.51 1033 10 16 N/A
7:55 am 07:55 Cloudy 30 -1 27 -3 86 86 N 9 15 30.52 1034 10 16 N/A
8:15 am 08:15 Cloudy 30 -1 27 -3 86 86 NNE 10 17 30.52 1034 10 16 N/A
8:16 am 08:16 Cloudy 30 -1 27 -3 86 86 NNE 10 17 30.52 1034 10 16 N/A
8:35 am 08:35 Cloudy 30 -1 27 -3 86 86 NE 10 17 30.52 1034 10 16 N/A
8:55 am 08:55 Cloudy 30 -1 27 -3 86 86 ENE 9 15 30.53 1034 10 16 N/A
9:15 am 09:15 Cloudy 30 -1 27 -3 86 86 NE 8 13 30.54 1034 10 16 N/A
9:35 am 09:35 Cloudy 30 -1 27 -3 86 86 ENE 10 17 30.53 1034 10 16 N/A
9:55 am 09:55 Cloudy 30 -1 27 -3 86 86 NE 10 17 30.53 1034 10 16 N/A
10:15 am 10:15 Cloudy 30 -1 27 -3 86 86 NE 12 19 30.55 1035 10 16 N/A
10:35 am 10:35 Cloudy 30 -1 25 -4 80 80 NE 7 11 30.56 1035 10 16 N/A
10:55 am 10:55 Cloudy 30 -1 25 -4 80 80 NE 7 11 30.56 1035 10 16 N/A
11:15 am 11:15 Cloudy 32 undefined 25 -4 75 75 NE 6 9 30.57 1035 10 16 N/A
11:16 am 11:16 Cloudy 30 -1 25 -4 80 80 NE 6 9 30.57 1035 10 16 N/A
11:35 am 11:35 Cloudy 32 undefined 27 -3 80 80 NE 5 7 30.57 1035 10 16 N/A
11:36 am 11:36 Cloudy 32 undefined 27 -3 80 80 NE 6 9 30.57 1035 10 16 N/A
11:55 am 11:55 Cloudy 32 undefined 27 -3 80 80 NE 6 9 30.57 1035 10 16 N/A
11:56 am 11:56 Cloudy 32 undefined 27 -3 80 80 NNE 6 9 30.57 1035 10 16 N/A
12:15 pm 12:15 Cloudy 32 undefined 27 -3 80 80 N 5 7 30.57 1035 10 16 N/A
12:35 pm 12:35 Cloudy 32 undefined 27 -3 80 80 NNE 7 11 30.57 1035 10 16 N/A
12:36 pm 12:36 Cloudy 32 undefined 27 -3 80 80 NNE 8 13 30.57 1035 10 16 N/A
12:55 pm 12:55 Cloudy 32 undefined 27 -3 80 80 N 7 11 30.57 1035 10 16 N/A
1:15 pm 13:15 Cloudy 32 undefined 27 -3 80 80 NE 6 9 30.57 1035 10 16 N/A
1:35 pm 13:35 Cloudy 34 1 27 -3 75 75 NNE 5 7 30.55 1035 10 16 N/A
1:36 pm 13:36 Cloudy 34 1 27 -3 75 75 NE 6 9 30.55 1035 10 16 N/A
1:55 pm 13:55 Cloudy 34 1 27 -3 75 75 N 5 7 30.55 1035 10 16 N/A
2:15 pm 14:15 Cloudy 34 1 27 -3 75 75 NNE 6 9 30.55 1035 10 16 N/A
2:35 pm 14:35 Cloudy 34 1 27 -3 75 75 NE 6 9 30.55 1035 10 16 N/A
2:36 pm 14:36 Cloudy 34 1 27 -3 75 75 NE 5 7 30.54 1034 10 16 N/A
2:55 pm 14:55 Cloudy 34 1 27 -3 75 75 N 7 11 30.54 1034 10 16 N/A
2:56 pm 14:56 Cloudy 34 1 27 -3 75 75 N 8 13 30.54 1034 10 16 N/A
3:15 pm 15:15 Cloudy 34 1 28 -2 81 81 N 9 15 30.54 1034 10 16 N/A
3:16 pm 15:16 Cloudy 34 1 28 -2 81 81 N 8 13 30.54 1034 10 16 N/A
3:35 pm 15:35 Cloudy 34 1 28 -2 81 81 NNE 9 15 30.53 1034 10 16 N/A
3:36 pm 15:36 Cloudy 34 1 28 -2 81 81 NNE 9 15 30.53 1034 10 16 N/A
3:55 pm 15:55 Cloudy 34 1 27 -3 75 75 NNE 7 11 30.54 1034 10 16 N/A
4:15 pm 16:15 Cloudy 34 1 28 -2 81 81 N 12 19 30.54 1034 10 16 N/A
4:16 pm 16:16 Cloudy 34 1 28 -2 81 81 N 10 17 30.53 1034 10 16 N/A
4:35 pm 16:35 Cloudy 34 1 28 -2 81 81 NNE 12 19 30.54 1034 10 16 N/A
4:36 pm 16:36 Cloudy 34 1 28 -2 81 81 N 12 19 30.54 1034 10 16 N/A
4:55 pm 16:55 Cloudy 34 1 28 -2 81 81 NNE 10 17 30.54 1034 10 16 N/A
4:56 pm 16:56 Cloudy 34 1 28 -2 81 81 NNE 12 19 30.54 1034 10 16 N/A
5:15 pm 17:15 Cloudy 34 1 28 -2 81 81 NE 7 11 30.54 1034 10 16 N/A
5:35 pm 17:35 Cloudy 34 1 28 -2 81 81 NE 9 15 30.53 1034 10 16 N/A
5:55 pm 17:55 Cloudy 34 1 28 -2 81 81 NNE 8 13 30.54 1034 10 16 N/A
6:15 pm 18:15 Cloudy 34 1 28 -2 81 81 NNE 10 17 30.54 1034 10 16 N/A
6:35 pm 18:35 Cloudy 32 undefined 27 -3 80 80 NE 8 13 30.55 1034 10 16 N/A
6:36 pm 18:36 Cloudy 32 undefined 28 -2 87 87 NE 9 15 30.55 1034 10 16 N/A
6:55 pm 18:55 Cloudy 32 undefined 27 -3 80 80 NE 7 11 30.56 1035 10 16 N/A
7:15 pm 19:15 Cloudy 32 undefined 27 -3 80 80 NE 7 11 30.56 1035 10 16 N/A
7:35 pm 19:35 Cloudy 32 undefined 27 -3 80 80 NE 8 13 30.57 1035 10 16 N/A
7:55 pm 19:55 Cloudy 32 undefined 27 -3 80 80 NE 6 9 30.57 1035 10 16 N/A
8:15 pm 20:15 Cloudy 32 undefined 27 -3 80 80 ENE 3 6 30.57 1035 10 16 N/A
8:16 pm 20:16 Cloudy 32 undefined 27 -3 80 80 NE 3 6 30.57 1035 10 16 N/A
8:35 pm 20:35 Cloudy 32 undefined 27 -3 80 80 NE 7 11 30.57 1035 10 16 N/A
8:55 pm 20:55 Cloudy 32 undefined 27 -3 80 80 NNE 6 9 30.58 1035 10 16 N/A
8:56 pm 20:56 Cloudy 32 undefined 27 -3 80 80 NNE 6 9 30.58 1035 10 16 N/A
9:15 pm 21:15 Cloudy 32 undefined 27 -3 80 80 ENE 5 7 30.58 1035 10 16 N/A
9:35 pm 21:35 Cloudy 32 undefined 27 -3 80 80 ENE 5 7 30.58 1035 10 16 N/A
9:36 pm 21:36 Cloudy 32 undefined 27 -3 80 80 ENE 5 7 30.58 1035 10 16 N/A
9:55 pm 21:55 Cloudy 32 undefined 27 -3 80 80 ENE 3 6 30.57 1035 10 16 N/A
9:56 pm 21:56 Cloudy 32 undefined 27 -3 80 80 ENE 3 6 30.58 1035 10 16 N/A
10:15 pm 22:15 Cloudy 32 undefined 27 -3 80 80 ENE 5 7 30.57 1035 10 16 N/A
10:16 pm 22:16 Cloudy 32 undefined 27 -3 80 80 ENE 6 9 30.57 1035 10 16 N/A
10:35 pm 22:35 Cloudy 32 undefined 28 -2 87 87 ENE 5 7 30.57 1035 10 16 N/A
10:36 pm 22:36 Cloudy 32 undefined 28 -2 87 87 ENE 5 7 30.57 1035 10 16 N/A
10:55 pm 22:55 Cloudy 32 undefined 28 -2 87 87 ENE 6 9 30.56 1035 10 16 N/A
11:15 pm 23:15 Cloudy 32 undefined 28 -2 87 87 E 8 13 30.55 1034 10 16 N/A
11:16 pm 23:16 Cloudy 32 undefined 28 -2 87 87 E 8 13 30.55 1034 10 16 N/A

Powered by AerisWeather